Location: Clairmont
(55.2667°N, 118.8000°W)
Time: 00:33:50
(UTC+00:00)

Envisat - Pass Details

Date: 28 October 2020
Orbit: 764 x 766 km, 98.1° (Epoch: 04 December)

Event Time Altitude Azimuth Distance (km) Brightness Sun altitude
Rises 02:40:17 0° 222° (SW) 3,228 6.8 -19.6°
Reaches altitude 10° 02:43:56 10° 250° (WSW) 2,308 6.4 -20.1°
Maximum altitude 02:46:17 13° 278° (W) 2,100 6.4 -20.4°
Drops below altitude 10° 02:48:38 10° 305° (NW) 2,316 6.4 -20.7°
Sets 02:52:20 0° 333° (NNW) 3,248 6.7 -21.3°
